| time (UTC) | temp F | wind direction | speed MPH | gust MPH | rain 1hr in | rain 24hr in | rain mn in | humidity % | barometer mb |
| 20260505041503 | 53 | 0 | 0.0 | 3.0 | 0.00 | 0.00 | 0.00 | 100 | 1011.6 |
| 20260505041003 | 53 | 0 | 0.0 | 1.0 | 0.00 | 0.00 | 0.00 | 100 | 1011.6 |
| 20260505040503 | 53 | 0 | 0.0 | 1.0 | 0.00 | 0.00 | 0.00 | 100 | 1011.6 |
| 20260505040004 | 53 | 0 | 0.0 | 1.0 | 0.00 | 0.00 | 0.00 | 100 | 1011.6 |
| 20260505035503 | 53 | 0 | 0.0 | 1.0 | 0.00 | 0.00 | 0.00 | 100 | 1011.6 |
| 20260505035004 | 53 | 0 | 0.0 | 1.0 | 0.00 | 0.00 | 0.00 | 100 | 1011.5 |
| 20260505034003 | 53 | 0 | 0.0 | 1.0 | 0.00 | 0.00 | 0.00 | 100 | 1011.5 |
| 20260505033003 | 53 | 0 | 0.0 | 1.0 | 0.00 | 0.00 | 0.00 | 100 | 1011.6 |
| 20260505032003 | 53 | 0 | 0.0 | 4.0 | 0.00 | 0.00 | 0.00 | 100 | 1011.5 |
| 20260505031504 | 53 | 0 | 0.0 | 1.0 | 0.00 | 0.00 | 0.00 | 100 | 1011.5 |
| 20260505031003 | 53 | 0 | 0.0 | 1.0 | 0.00 | 0.00 | 0.00 | 100 | 1011.6 |
| 20260505030504 | 53 | 0 | 0.0 | 2.0 | 0.00 | 0.00 | 0.00 | 100 | 1011.7 |
| 20260505030003 | 53 | 0 | 0.0 | 2.0 | 0.00 | 0.00 | 0.00 | 100 | 1011.7 |
| 20260505025503 | 53 | 0 | 0.0 | 1.0 | 0.00 | 0.00 | 0.00 | 100 | 1011.8 |
| 20260505025004 | 53 | 0 | 0.0 | 2.0 | 0.00 | 0.00 | 0.00 | 100 | 1011.7 |
| 20260505024504 | 53 | 0 | 0.0 | 2.0 | 0.00 | 0.00 | 0.00 | 100 | 1011.7 |
| 20260505024003 | 53 | 0 | 0.0 | 1.0 | 0.00 | 0.00 | 0.00 | 100 | 1011.7 |
| 20260505023503 | 53 | 0 | 0.0 | 4.0 | 0.00 | 0.00 | 0.00 | 100 | 1011.7 |
| 20260505023005 | 53 | 173 | 1.0 | 4.0 | 0.00 | 0.00 | 0.00 | 100 | 1011.7 |
| 20260505022503 | 53 | 175 | 1.0 | 3.0 | 0.00 | 0.00 | 0.00 | 100 | 1011.6 |
| 20260505021504 | 53 | 0 | 0.0 | 5.0 | 0.00 | 0.00 | 0.00 | 100 | 1011.8 |
| 20260505021004 | 53 | 0 | 0.0 | 3.0 | 0.00 | 0.00 | 0.00 | 100 | 1011.8 |
| 20260505020503 | 53 | 0 | 0.0 | 3.0 | 0.00 | 0.00 | 0.00 | 100 | 1011.8 |
| 20260505020003 | 53 | 0 | 0.0 | 3.0 | 0.00 | 0.00 | 0.00 | 100 | 1011.7 |
| 20260505015504 | 53 | 0 | 0.0 | 5.0 | 0.00 | 0.00 | 0.00 | 100 | 1011.7 |
| 20260505015004 | 53 | 171 | 1.0 | 5.0 | 0.00 | 0.00 | 0.00 | 100 | 1011.7 |
| 20260505014503 | 53 | 181 | 1.0 | 5.0 | 0.00 | 0.00 | 0.00 | 100 | 1011.7 |
| 20260505014003 | 53 | 183 | 1.0 | 6.0 | 0.00 | 0.00 | 0.00 | 100 | 1011.7 |
| 20260505013004 | 53 | 173 | 1.0 | 5.0 | 0.00 | 0.00 | 0.00 | 100 | 1011.6 |
| 20260505012503 | 53 | 179 | 1.0 | 5.0 | 0.00 | 0.00 | 0.00 | 100 | 1011.5 |
| 20260505012003 | 53 | 179 | 2.0 | 7.0 | 0.00 | 0.00 | 0.00 | 100 | 1011.4 |
| 20260505011504 | 53 | 184 | 2.0 | 7.0 | 0.00 | 0.00 | 0.00 | 100 | 1011.3 |
| 20260505011003 | 53 | 186 | 2.0 | 7.0 | 0.00 | 0.00 | 0.00 | 100 | 1011.2 |
| 20260505010503 | 53 | 178 | 1.0 | 6.0 | 0.00 | 0.00 | 0.00 | 100 | 1011.1 |
| 20260505010004 | 53 | 0 | 0.0 | 3.0 | 0.00 | 0.00 | 0.00 | 100 | 1011.0 |
| 20260505004504 | 53 | 181 | 1.0 | 6.0 | 0.00 | 0.00 | 0.00 | 100 | 1010.8 |
| 20260505004003 | 53 | 173 | 1.0 | 7.0 | 0.00 | 0.00 | 0.00 | 100 | 1010.7 |
| 20260505003503 | 53 | 175 | 1.0 | 7.0 | 0.00 | 0.00 | 0.00 | 100 | 1010.6 |
| 20260505003004 | 53 | 193 | 1.0 | 6.0 | 0.00 | 0.00 | 0.00 | 100 | 1010.4 |
| 20260505002004 | 53 | 190 | 2.0 | 7.0 | 0.00 | 0.00 | 0.00 | 100 | 1010.2 |
| 20260505001004 | 53 | 189 | 2.0 | 5.0 | 0.00 | 0.00 | 0.00 | 100 | 1010.1 |
| 20260505000503 | 53 | 187 | 2.0 | 5.0 | 0.00 | 0.00 | 0.00 | 100 | 1010.1 |
| 20260504235503 | 53 | 178 | 2.0 | 8.0 | 0.00 | 0.00 | 0.00 | 100 | 1009.8 |
| 20260504235003 | 53 | 197 | 2.0 | 10.0 | 0.00 | 0.00 | 0.00 | 100 | 1009.7 |
| 20260504233003 | 53 | 197 | 3.0 | 9.0 | 0.00 | 0.00 | 0.00 | 100 | 1009.5 |
| 20260504232503 | 53 | 193 | 3.0 | 11.0 | 0.00 | 0.00 | 0.00 | 100 | 1009.5 |
| 20260504232004 | 53 | 189 | 3.0 | 11.0 | 0.00 | 0.00 | 0.00 | 100 | 1009.3 |
| 20260504231503 | 53 | 184 | 3.0 | 13.0 | 0.00 | 0.00 | 0.00 | 100 | 1009.3 |
| 20260504231003 | 53 | 184 | 3.0 | 13.0 | 0.00 | 0.00 | 0.00 | 100 | 1009.2 |
| 20260504230503 | 53 | 188 | 3.0 | 12.0 | 0.00 | 0.00 | 0.00 | 100 | 1009.0 |
| 20260504230003 | 53 | 197 | 3.0 | 12.0 | 0.00 | 0.00 | 0.00 | 100 | 1009.3 |
| 20260504225503 | 53 | 193 | 4.0 | 12.0 | 0.00 | 0.00 | 0.00 | 100 | 1009.2 |
| 20260504225003 | 53 | 185 | 4.0 | 11.0 | 0.00 | 0.00 | 0.00 | 100 | 1009.2 |
| 20260504224503 | 53 | 183 | 4.0 | 10.0 | 0.00 | 0.00 | 0.00 | 100 | 1009.1 |
| 20260504224004 | 53 | 186 | 3.0 | 10.0 | 0.00 | 0.00 | 0.00 | 100 | 1009.0 |
| 20260504223503 | 53 | 190 | 2.0 | 12.0 | 0.00 | 0.00 | 0.00 | 100 | 1009.0 |
| 20260504223003 | 53 | 191 | 3.0 | 12.0 | 0.00 | 0.00 | 0.00 | 100 | 1009.0 |
| 20260504222503 | 53 | 193 | 3.0 | 15.0 | 0.00 | 0.00 | 0.00 | 100 | 1008.8 |
| 20260504221503 | 53 | 193 | 4.0 | 13.0 | 0.00 | 0.00 | 0.00 | 100 | 1008.8 |
| 20260504221003 | 53 | 188 | 4.0 | 10.0 | 0.00 | 0.00 | 0.00 | 100 | 1008.8 |
| 20260504220003 | 53 | 175 | 2.0 | 13.0 | 0.00 | 0.00 | 0.00 | 100 | 1008.8 |
| 20260504215503 | 53 | 178 | 3.0 | 13.0 | 0.00 | 0.00 | 0.00 | 100 | 1008.7 |
| 20260504215003 | 53 | 183 | 3.0 | 9.0 | 0.00 | 0.00 | 0.00 | 100 | 1008.7 |
| 20260504214503 | 53 | 184 | 3.0 | 12.0 | 0.00 | 0.00 | 0.00 | 100 | 1008.6 |
| 20260504214003 | 53 | 182 | 3.0 | 12.0 | 0.00 | 0.00 | 0.00 | 100 | 1008.7 |
| 20260504213503 | 53 | 178 | 3.0 | 10.0 | 0.00 | 0.00 | 0.00 | 100 | 1008.6 |
| 20260504213003 | 53 | 179 | 4.0 | 13.0 | 0.00 | 0.00 | 0.00 | 100 | 1008.6 |
| 20260504212503 | 53 | 181 | 3.0 | 13.0 | 0.00 | 0.00 | 0.00 | 100 | 1008.6 |
| 20260504212003 | 53 | 186 | 3.0 | 10.0 | 0.00 | 0.00 | 0.00 | 100 | 1008.6 |
| 20260504211503 | 53 | 187 | 5.0 | 14.0 | 0.00 | 0.00 | 0.00 | 100 | 1008.5 |
| 20260504211003 | 53 | 185 | 4.0 | 15.0 | 0.00 | 0.00 | 0.00 | 100 | 1008.4 |
| 20260504210503 | 53 | 188 | 4.0 | 15.0 | 0.00 | 0.00 | 0.00 | 100 | 1008.4 |
| 20260504210003 | 53 | 189 | 4.0 | 14.0 | 0.00 | 0.00 | 0.00 | 100 | 1008.4 |
| 20260504205503 | 53 | 183 | 4.0 | 10.0 | 0.00 | 0.00 | 0.00 | 100 | 1008.7 |
| 20260504205003 | 53 | 188 | 3.0 | 10.0 | 0.00 | 0.00 | 0.00 | 100 | 1008.7 |
| 20260504204504 | 53 | 193 | 4.0 | 13.0 | 0.00 | 0.00 | 0.00 | 100 | 1008.5 |
| 20260504204003 | 53 | 192 | 4.0 | 13.0 | 0.00 | 0.00 | 0.00 | 100 | 1008.4 |
| 20260504203503 | 53 | 185 | 3.0 | 10.0 | 0.00 | 0.00 | 0.00 | 100 | 1008.3 |
| 20260504203003 | 53 | 179 | 3.0 | 10.0 | 0.00 | 0.00 | 0.00 | 100 | 1008.4 |
| 20260504202503 | 53 | 179 | 3.0 | 9.0 | 0.00 | 0.00 | 0.00 | 100 | 1008.3 |
| 20260504202003 | 53 | 175 | 3.0 | 9.0 | 0.00 | 0.00 | 0.00 | 100 | 1008.4 |
| 20260504201503 | 53 | 181 | 4.0 | 11.0 | 0.00 | 0.00 | 0.00 | 100 | 1008.4 |
| 20260504200503 | 53 | 192 | 5.0 | 13.0 | 0.00 | 0.00 | 0.00 | 100 | 1008.3 |
| 20260504200003 | 53 | 179 | 4.0 | 12.0 | 0.00 | 0.00 | 0.00 | 100 | 1008.3 |
| 20260504195503 | 53 | 184 | 5.0 | 14.0 | 0.00 | 0.00 | 0.00 | 100 | 1008.4 |
| 20260504195003 | 53 | 184 | 5.0 | 16.0 | 0.00 | 0.00 | 0.00 | 100 | 1008.4 |
| 20260504194504 | 53 | 182 | 5.0 | 16.0 | 0.00 | 0.00 | 0.00 | 100 | 1008.4 |
| 20260504194003 | 53 | 193 | 4.0 | 13.0 | 0.00 | 0.00 | 0.00 | 100 | 1008.4 |
| 20260504193503 | 53 | 198 | 5.0 | 14.0 | 0.00 | 0.00 | 0.00 | 100 | 1008.4 |
| 20260504193003 | 53 | 200 | 4.0 | 14.0 | 0.00 | 0.00 | 0.00 | 100 | 1008.4 |
| 20260504192003 | 53 | 192 | 5.0 | 19.0 | 0.00 | 0.00 | 0.00 | 100 | 1008.3 |
| 20260504191503 | 53 | 195 | 5.0 | 15.0 | 0.00 | 0.00 | 0.00 | 100 | 1008.4 |
| 20260504191004 | 53 | 200 | 5.0 | 14.0 | 0.00 | 0.00 | 0.00 | 100 | 1008.3 |
| 20260504190504 | 53 | 198 | 4.0 | 13.0 | 0.00 | 0.00 | 0.00 | 100 | 1008.5 |
| 20260504190004 | 53 | 200 | 4.0 | 10.0 | 0.00 | 0.00 | 0.00 | 100 | 1008.5 |
| 20260504185504 | 53 | 198 | 4.0 | 13.0 | 0.00 | 0.00 | 0.00 | 100 | 1008.6 |
| 20260504185004 | 53 | 201 | 4.0 | 13.0 | 0.00 | 0.00 | 0.00 | 100 | 1008.5 |
| 20260504184503 | 53 | 210 | 4.0 | 13.0 | 0.00 | 0.00 | 0.00 | 100 | 1008.5 |
| 20260504184003 | 53 | 223 | 3.0 | 9.0 | 0.00 | 0.00 | 0.00 | 100 | 1008.6 |
| 20260504183504 | 53 | 230 | 3.0 | 9.0 | 0.00 | 0.00 | 0.00 | 100 | 1008.7 |
| 20260504183003 | 53 | 244 | 4.0 | 14.0 | 0.00 | 0.00 | 0.00 | 100 | 1008.7 |
| 20260504182503 | 53 | 254 | 4.0 | 14.0 | 0.00 | 0.00 | 0.00 | 100 | 1008.8 |
| 20260504182003 | 53 | 255 | 4.0 | 11.0 | 0.00 | 0.00 | 0.00 | 100 | 1008.8 |
| 20260504181003 | 53 | 199 | 5.0 | 17.0 | 0.00 | 0.00 | 0.00 | 100 | 1008.8 |
| 20260504180503 | 53 | 194 | 6.0 | 17.0 | 0.00 | 0.00 | 0.00 | 100 | 1009.0 |
| 20260504180004 | 53 | 185 | 5.0 | 16.0 | 0.00 | 0.00 | 0.00 | 100 | 1008.8 |
| 20260504175503 | 53 | 192 | 5.0 | 16.0 | 0.00 | 0.00 | 0.00 | 100 | 1008.9 |
| 20260504175003 | 53 | 194 | 4.0 | 15.0 | 0.00 | 0.00 | 0.00 | 100 | 1008.8 |
| 20260504174004 | 53 | 191 | 4.0 | 14.0 | 0.00 | 0.00 | 0.00 | 100 | 1008.6 |
| 20260504173503 | 53 | 199 | 4.0 | 17.0 | 0.00 | 0.00 | 0.00 | 100 | 1008.7 |
| 20260504173003 | 53 | 201 | 4.0 | 17.0 | 0.00 | 0.00 | 0.00 | 100 | 1008.6 |
| 20260504172504 | 53 | 203 | 5.0 | 15.0 | 0.00 | 0.00 | 0.00 | 100 | 1008.9 |
| 20260504172004 | 53 | 212 | 4.0 | 16.0 | 0.00 | 0.00 | 0.00 | 100 | 1008.8 |
| 20260504171503 | 53 | 217 | 4.0 | 16.0 | 0.00 | 0.00 | 0.00 | 100 | 1008.7 |
| 20260504171003 | 53 | 207 | 3.0 | 10.0 | 0.00 | 0.00 | 0.00 | 100 | 1009.0 |
| 20260504170504 | 53 | 206 | 3.0 | 14.0 | 0.00 | 0.00 | 0.00 | 100 | 1009.0 |
| 20260504150503 | 53 | 199 | 3.0 | 11.0 | 0.00 | 0.01 | 0.00 | 100 | 1010.2 |
| 20260504140503 | 53 | 304 | 3.0 | 12.0 | 0.00 | 0.01 | 0.00 | 100 | 1010.9 |
| 20260504100504 | 43 | 0 | 0.0 | 0.0 | 0.00 | 0.01 | 0.00 | 69 | 1011.5 |
| 20260504080503 | 41 | 0 | 0.0 | 0.0 | 0.00 | 0.01 | 0.00 | 69 | 1011.0 |
| 20260504050003 | 38 | 0 | 0.0 | 0.0 | 0.00 | 0.01 | 0.00 | 100 | 1010.9 |
| 20260504045503 | 38 | 0 | 0.0 | 0.0 | 0.00 | 0.01 | 0.00 | 69 | 1011.0 |
| 20260504045003 | 38 | 0 | 0.0 | 0.0 | 0.00 | 0.01 | 0.00 | 69 | 1010.9 |
| 20260504044503 | 38 | 0 | 0.0 | 0.0 | 0.00 | 0.01 | 0.00 | 69 | 1011.0 |
| 20260504043503 | 38 | 0 | 0.0 | 0.0 | 0.00 | 0.01 | 0.00 | 69 | 1010.9 |
| 20260504043002 | 38 | 0 | 0.0 | 0.0 | 0.00 | 0.01 | 0.00 | 69 | 1010.9 |
| 20260504042503 | 39 | 0 | 0.0 | 0.0 | 0.00 | 0.01 | 0.00 | 69 | 1010.9 |